�������l�o���
Date,Time,MP-1(��Sv/h),MP-2(��Sv/h),MP-3(��Sv/h),MP-4(��Sv/h),MP-5(��Sv/h),MP-6(��Sv/h),MP-7(��Sv/h),MP-8(��Sv/h),����,����(m/s),���J
2021/04/08,00:00,0.628,0.925,0.585,1.134,0.810,0.370,0.651,0.612,�k�k��,3.8,��
2021/04/08,00:10,0.626,0.925,0.585,1.133,0.812,0.371,0.653,0.611,�k,2.8,��
2021/04/08,00:20,0.629,0.926,0.585,1.135,0.812,0.370,0.651,0.612,�k��,3.3,��
2021/04/08,00:30,0.626,0.925,0.587,1.133,0.811,0.370,0.652,0.612,�k��,2.9,��
2021/04/08,00:40,0.626,0.924,0.585,1.132,0.812,0.373,0.653,0.611,���k��,5.1,��
2021/04/08,00:50,0.629,0.925,0.584,1.135,0.810,0.370,0.651,0.611,�k��,5.4,��
2021/04/08,01:00,0.629,0.925,0.585,1.135,0.809,0.370,0.651,0.611,���k��,4.7,��
2021/04/08,01:10,0.629,0.926,0.584,1.135,0.810,0.369,0.650,0.612,�k��,2.3,��
2021/04/08,01:20,0.629,0.924,0.587,1.135,0.812,0.371,0.652,0.610,���k��,4.2,��
2021/04/08,01:30,0.627,0.926,0.586,1.133,0.810,0.371,0.651,0.612,���k��,4.8,��
2021/04/08,01:40,0.628,0.926,0.586,1.135,0.810,0.371,0.651,0.611,���k��,7.0,��
2021/04/08,01:50,0.627,0.926,0.587,1.136,0.810,0.372,0.652,0.612,���k��,7.2,��
2021/04/08,02:00,0.627,0.926,0.586,1.136,0.809,0.371,0.652,0.611,���k��,8.9,��
2021/04/08,02:10,0.628,0.925,0.585,1.134,0.810,0.371,0.651,0.612,��,8.6,��
2021/04/08,02:20,0.629,0.924,0.585,1.134,0.810,0.370,0.652,0.611,��,9.2,��
2021/04/08,02:30,0.627,0.926,0.585,1.135,0.811,0.371,0.652,0.611,��,9.4,��
2021/04/08,02:40,0.628,0.924,0.586,1.134,0.810,0.370,0.652,0.611,��,10.6,��
2021/04/08,02:50,0.628,0.923,0.586,1.133,0.810,0.370,0.651,0.612,��,10.6,��
2021/04/08,03:00,0.629,0.926,0.585,1.135,0.809,0.371,0.652,0.613,��,9.6,��
2021/04/08,03:10,0.628,0.925,0.586,1.132,0.810,0.371,0.651,0.612,��,9.0,��
2021/04/08,03:20,0.628,0.924,0.585,1.133,0.810,0.371,0.652,0.612,��,8.0,��
2021/04/08,03:30,0.629,0.924,0.586,1.136,0.811,0.371,0.652,0.612,��,7.6,��
2021/04/08,03:40,0.627,0.923,0.587,1.136,0.813,0.370,0.652,0.613,��,7.4,��
2021/04/08,03:50,0.628,0.925,0.583,1.137,0.809,0.370,0.652,0.612,��,6.7,��
2021/04/08,04:00,0.626,0.925,0.584,1.136,0.810,0.371,0.652,0.612,��,7.0,��
2021/04/08,04:10,0.628,0.927,0.586,1.137,0.811,0.371,0.651,0.612,��,6.9,��
2021/04/08,04:20,0.626,0.926,0.584,1.135,0.812,0.370,0.650,0.613,��,6.7,��
2021/04/08,04:30,0.627,0.925,0.584,1.135,0.810,0.370,0.652,0.611,��,6.7,��
2021/04/08,04:40,0.629,0.925,0.586,1.137,0.810,0.371,0.649,0.613,��,7.2,��
2021/04/08,04:50,0.629,0.926,0.586,1.135,0.810,0.371,0.652,0.613,��,7.5,��
2021/04/08,05:00,0.628,0.925,0.585,1.135,0.809,0.370,0.650,0.612,��,7.3,��
2021/04/08,05:10,0.628,0.926,0.585,1.136,0.809,0.370,0.652,0.611,��,7.1,��
2021/04/08,05:20,0.626,0.925,0.585,1.135,0.810,0.370,0.650,0.612,��,7.5,��
2021/04/08,05:30,0.627,0.923,0.586,1.136,0.810,0.369,0.651,0.614,���k��,9.2,��
2021/04/08,05:40,0.628,0.927,0.584,1.134,0.809,0.371,0.652,0.613,���k��,9.5,��
2021/04/08,05:50,0.628,0.926,0.585,1.137,0.810,0.371,0.652,0.612,���k��,9.7,��
2021/04/08,06:00,0.627,0.925,0.585,1.135,0.811,0.371,0.651,0.613,���k��,8.0,��
2021/04/08,06:10,0.626,0.924,0.585,1.135,0.811,0.370,0.652,0.612,���k��,7.5,��
2021/04/08,06:20,0.626,0.924,0.584,1.137,0.811,0.370,0.653,0.613,��,7.5,��
2021/04/08,06:30,0.628,0.925,0.586,1.137,0.809,0.371,0.651,0.611,��,7.0,��
2021/04/08,06:40,0.628,0.924,0.585,1.138,0.808,0.370,0.653,0.612,���k��,8.0,��
2021/04/08,06:50,0.627,0.925,0.584,1.134,0.810,0.372,0.652,0.612,���k��,7.9,��
2021/04/08,07:00,0.628,0.925,0.587,1.137,0.811,0.371,0.652,0.612,���k��,8.2,��
2021/04/08,07:10,0.628,0.927,0.585,1.134,0.810,0.372,0.654,0.612,���k��,7.4,��
2021/04/08,07:20,0.628,0.926,0.586,1.137,0.811,0.370,0.653,0.614,���k��,6.6,��
2021/04/08,07:30,0.628,0.926,0.585,1.137,0.809,0.371,0.652,0.612,���k��,7.9,��
2021/04/08,07:40,0.629,0.927,0.585,1.135,0.810,0.370,0.654,0.614,���k��,8.3,��
2021/04/08,07:50,0.629,0.927,0.586,1.135,0.811,0.368,0.653,0.613,���k��,7.5,��
2021/04/08,08:00,0.631,0.923,0.586,1.137,0.812,0.369,0.651,0.613,���k��,7.5,��
2021/04/08,08:10,0.628,0.925,0.585,1.139,0.813,0.370,0.652,0.613,�k��,6.8,��
2021/04/08,08:20,0.631,0.925,0.585,1.137,0.812,0.370,0.653,0.614,���k��,6.9,��
2021/04/08,08:30,0.631,0.923,0.586,1.137,0.813,0.369,0.654,0.615,���k��,7.7,��
2021/04/08,08:40,0.631,0.924,0.587,1.136,0.814,0.370,0.653,0.612,�k��,7.4,��
2021/04/08,08:50,0.630,0.923,0.587,1.138,0.813,0.370,0.652,0.613,�k��,5.7,��
2021/04/08,09:00,0.630,0.924,0.588,1.137,0.814,0.370,0.651,0.614,�k��,6.1,��
2021/04/08,09:10,0.632,0.921,0.586,1.140,0.812,0.369,0.652,0.610,���k��,3.1,��
2021/04/08,09:20,0.631,0.926,0.587,1.139,0.810,0.370,0.651,0.612,���k��,2.3,��
2021/04/08,09:30,0.629,0.923,0.588,1.139,0.811,0.370,0.652,0.610,�k��,2.0,��
2021/04/08,09:40,0.630,0.925,0.587,1.139,0.815,0.371,0.653,0.611,�k��,5.0,��
2021/04/08,09:50,0.630,0.925,0.589,1.139,0.815,0.371,0.653,0.611,�k��,3.4,��
2021/04/08,10:00,0.630,0.924,0.586,1.139,0.813,0.371,0.653,0.612,�k�k��,2.9,��
2021/04/08,10:10,0.631,0.926,0.588,1.140,0.811,0.372,0.652,0.612,���k��,2.6,��
2021/04/08,10:20,0.631,0.927,0.587,1.139,0.813,0.371,0.653,0.612,�k,2.9,��
2021/04/08,10:30,0.630,0.928,0.588,1.141,0.813,0.372,0.653,0.613,�k�k��,1.9,��
2021/04/08,10:40,0.633,0.926,0.588,1.138,0.813,0.371,0.654,0.612,�k��,3.1,��
2021/04/08,10:50,0.631,0.930,0.588,1.140,0.814,0.371,0.653,0.612,���쓌,4.4,��
2021/04/08,11:00,0.631,0.927,0.586,1.141,0.813,0.371,0.653,0.612,���쓌,4.0,��
2021/04/08,11:10,0.630,0.928,0.586,1.144,0.815,0.371,0.652,0.612,��,4.2,��
2021/04/08,11:20,0.630,0.927,0.587,1.139,0.811,0.371,0.654,0.613,���쓌,3.7,��
2021/04/08,11:30,0.628,0.928,0.585,1.142,0.813,0.371,0.654,0.613,���쓌,4.3,��
2021/04/08,11:40,0.631,0.928,0.586,1.143,0.815,0.370,0.653,0.612,���쓌,3.7,��
2021/04/08,11:50,0.630,0.931,0.587,1.142,0.815,0.371,0.654,0.612,�쓌,5.0,��
2021/04/08,12:00,0.630,0.930,0.587,1.141,0.816,0.370,0.652,0.613,�쓌,4.9,��
2021/04/08,12:10,0.631,0.931,0.586,1.142,0.816,0.371,0.655,0.612,�쓌,4.8,��
2021/04/08,12:20,0.633,0.931,0.585,1.142,0.816,0.370,0.654,0.612,�쓌,4.6,��
2021/04/08,12:30,0.633,0.933,0.588,1.144,0.814,0.370,0.653,0.613,���쓌,5.4,��
2021/04/08,12:40,0.633,0.932,0.587,1.143,0.817,0.370,0.653,0.611,�쓌,3.8,��
2021/04/08,12:50,0.632,0.930,0.587,1.142,0.815,0.372,0.654,0.610,��쓌,5.1,��
2021/04/08,13:00,0.634,0.931,0.588,1.141,0.818,0.371,0.654,0.612,�쓌,4.4,��
2021/04/08,13:10,0.632,0.928,0.587,1.142,0.816,0.372,0.654,0.613,��쓌,5.1,��
2021/04/08,13:20,0.632,0.930,0.589,1.144,0.817,0.371,0.653,0.613,�쓌,4.1,��
2021/04/08,13:30,0.631,0.930,0.587,1.144,0.819,0.372,0.654,0.612,�쓌,3.9,��
2021/04/08,13:40,0.633,0.929,0.588,1.142,0.818,0.372,0.652,0.610,�쓌,5.0,��
2021/04/08,13:50,0.632,0.930,0.589,1.142,0.817,0.371,0.652,0.613,�쓌,5.5,��
2021/04/08,14:00,0.632,0.928,0.587,1.144,0.817,0.372,0.651,0.611,�쓌,5.3,��
2021/04/08,14:10,0.632,0.931,0.588,1.144,0.816,0.372,0.654,0.612,�쓌,5.7,��
2021/04/08,14:20,0.629,0.931,0.587,1.144,0.816,0.373,0.653,0.612,��쓌,5.7,�L
2021/04/08,14:30,0.632,0.929,0.588,1.143,0.816,0.373,0.653,0.611,��쓌,8.2,�L
2021/04/08,14:40,0.631,0.931,0.587,1.145,0.817,0.373,0.652,0.611,��쓌,8.9,�L
2021/04/08,14:50,0.632,0.930,0.589,1.144,0.818,0.371,0.654,0.613,��쓌,7.4,�L
2021/04/08,15:00,0.631,0.931,0.588,1.142,0.818,0.374,0.652,0.612,��쓌,8.4,��
2021/04/08,15:10,0.634,0.933,0.588,1.144,0.818,0.371,0.655,0.612,��쓌,9.4,��
2021/04/08,15:20,0.631,0.930,0.588,1.144,0.816,0.372,0.654,0.613,��쓌,9.2,�L
2021/04/08,15:30,0.631,0.932,0.588,1.145,0.818,0.372,0.654,0.612,��쓌,8.2,�L
2021/04/08,15:40,0.632,0.932,0.586,1.145,0.816,0.371,0.654,0.611,��쓌,7.2,��
2021/04/08,15:50,0.631,0.932,0.588,1.145,0.817,0.372,0.654,0.612,��쓌,7.5,��
2021/04/08,16:00,0.633,0.933,0.589,1.148,0.817,0.373,0.654,0.613,��쓌,6.5,�L
2021/04/08,16:10,0.633,0.933,0.590,1.145,0.817,0.373,0.655,0.613,��쓌,7.4,��
2021/04/08,16:20,0.633,0.934,0.590,1.145,0.817,0.374,0.653,0.611,��쓌,6.8,�L
2021/04/08,16:30,0.635,0.934,0.592,1.145,0.815,0.374,0.653,0.612,��쓌,5.6,�L
2021/04/08,16:40,0.634,0.933,0.593,1.145,0.817,0.374,0.654,0.612,��쓌,6.6,��
2021/04/08,16:50,0.634,0.937,0.592,1.144,0.819,0.375,0.654,0.612,��쓌,6.0,��
2021/04/08,17:00,0.634,0.937,0.591,1.145,0.818,0.374,0.652,0.614,��쓌,4.8,��
2021/04/08,17:10,0.633,0.937,0.590,1.145,0.818,0.375,0.653,0.614,��쓌,7.3,�L
2021/04/08,17:20,0.634,0.938,0.592,1.144,0.819,0.374,0.653,0.614,��,4.2,�L
2021/04/08,17:30,0.633,0.935,0.589,1.146,0.817,0.374,0.654,0.615,��,1.1,�L
2021/04/08,17:40,0.633,0.936,0.592,1.144,0.820,0.372,0.652,0.615,�k��,5.5,�L
2021/04/08,17:50,0.633,0.934,0.591,1.146,0.820,0.373,0.655,0.614,�k��,4.0,�L
2021/04/08,18:00,0.633,0.935,0.590,1.144,0.821,0.374,0.653,0.616,�k��,5.4,�L
2021/04/08,18:10,0.632,0.935,0.588,1.144,0.820,0.374,0.654,0.614,�k�k��,4.5,�L
2021/04/08,18:20,0.631,0.931,0.589,1.144,0.819,0.374,0.655,0.617,�k,6.8,�L
2021/04/08,18:30,0.632,0.933,0.588,1.146,0.820,0.373,0.653,0.615,�k�k��,7.1,�L
2021/04/08,18:40,0.631,0.930,0.590,1.143,0.819,0.374,0.654,0.615,�k,8.5,��
2021/04/08,18:50,0.633,0.932,0.587,1.143,0.816,0.373,0.653,0.616,�k,7.6,�L
2021/04/08,19:00,0.631,0.931,0.590,1.143,0.818,0.372,0.654,0.615,�k�k��,7.6,�L
2021/04/08,19:10,0.629,0.931,0.588,1.145,0.820,0.373,0.652,0.614,�k�k��,7.1,�L
2021/04/08,19:20,0.632,0.931,0.590,1.143,0.818,0.373,0.651,0.616,�k�k��,8.3,��
2021/04/08,19:30,0.631,0.930,0.586,1.143,0.818,0.372,0.653,0.616,�k,8.7,�L
2021/04/08,19:40,0.629,0.930,0.586,1.143,0.820,0.372,0.652,0.614,�k�k��,6.7,�L
2021/04/08,19:50,0.630,0.931,0.586,1.143,0.819,0.371,0.654,0.615,�k�k��,6.1,�L
2021/04/08,20:00,0.630,0.930,0.589,1.142,0.819,0.371,0.653,0.614,�k,6.7,�L
2021/04/08,20:10,0.632,0.932,0.587,1.144,0.817,0.372,0.652,0.614,�k,6.1,�L
2021/04/08,20:20,0.629,0.930,0.586,1.142,0.819,0.372,0.651,0.613,�k�k��,5.9,�L
2021/04/08,20:30,0.627,0.929,0.586,1.144,0.817,0.373,0.652,0.613,�k�k��,6.1,�L
2021/04/08,20:40,0.629,0.929,0.587,1.140,0.818,0.372,0.652,0.614,�k�k��,6.7,�L
2021/04/08,20:50,0.628,0.930,0.587,1.144,0.816,0.373,0.652,0.615,�k�k��,5.7,�L
2021/04/08,21:00,0.629,0.927,0.585,1.142,0.814,0.373,0.652,0.613,�k�k��,6.6,�L
2021/04/08,21:10,0.627,0.928,0.587,1.142,0.816,0.373,0.651,0.614,�k�k��,6.7,�L
2021/04/08,21:20,0.628,0.927,0.586,1.143,0.815,0.375,0.652,0.614,�k�k��,7.0,�L
2021/04/08,21:30,0.629,0.924,0.587,1.144,0.813,0.375,0.650,0.613,�k,5.9,�L
2021/04/08,21:40,0.629,0.926,0.587,1.141,0.814,0.374,0.651,0.614,�k�k��,6.9,�L
2021/04/08,21:50,0.626,0.926,0.587,1.142,0.816,0.375,0.653,0.614,�k�k��,7.5,�L
2021/04/08,22:00,0.628,0.926,0.587,1.140,0.812,0.373,0.653,0.613,�k,7.0,�L
2021/04/08,22:10,0.625,0.924,0.586,1.143,0.815,0.375,0.651,0.613,�k,7.1,�L
2021/04/08,22:20,0.626,0.922,0.585,1.141,0.811,0.371,0.652,0.613,�k�k��,6.7,�L
2021/04/08,22:30,0.628,0.924,0.585,1.137,0.813,0.372,0.652,0.613,�k�k��,6.7,�L
2021/04/08,22:40,0.625,0.925,0.584,1.139,0.810,0.372,0.652,0.613,�k�k��,7.4,�L
2021/04/08,22:50,0.627,0.923,0.585,1.141,0.810,0.372,0.650,0.613,�k�k��,6.9,�L
2021/04/08,23:00,0.626,0.923,0.585,1.140,0.813,0.371,0.652,0.613,�k�k��,6.4,��
2021/04/08,23:10,0.625,0.923,0.583,1.142,0.811,0.371,0.652,0.614,�k�k��,6.7,��
2021/04/08,23:20,0.624,0.923,0.586,1.139,0.812,0.372,0.652,0.614,�k�k��,5.7,��
2021/04/08,23:30,0.625,0.921,0.583,1.141,0.811,0.371,0.652,0.614,�k��,6.2,�L
2021/04/08,23:40,0.627,0.922,0.585,1.143,0.811,0.371,0.652,0.613,���k��,7.8,�L
2021/04/08,23:50,0.627,0.925,0.586,1.139,0.813,0.373,0.653,0.616,���k��,7.0,�L
